Probability
0 0 0 0 0 0 0 0 0 0 1 2 3 3 3 3 3 3 2 1 2 2 2 3 4 4 4 4 4 4 2 1 0 0 0 0 0 0 0 0 0 0 0
0 0 0 0 0 0 0 0 0 0 0 1 3 3 3 3 3 3 2 1 1 1 2 2 3 4 5 5 6 6 5 3 2 1 0 0 0 0 0 0 0 0 0
0 0 0 0 0 0 0 0 0 0 0 1 2 3 3 3 3 3 2 1 0 0 1 1 1 2 4 5 6 7 7 6 5 4 2 1 0 0 0 0 0 0 0
0 0 0 0 0 0 0 0 0 1 2 1 1 3 3 3 2 1 1 0 0 0 0 0 0 1 2 3 4 5 5 5 6 6 5 3 1 1 1 0 0 0 0
0 0 0 0 0 0 0 0 0 1 2 2 1 2 2 2 1 0 0 0 0 0 0 0 0 0 1 1 2 3 3 4 4 5 6 5 3 2 2 1 0 0 0
0 0 0 0 0 0 0 0 0 1 1 1 1 1 1 1 0 0 0 0 0 0 0 0 0 0 0 0 1 2 3 3 3 5 6 6 5 3 3 1 0 0 0
0 0 0 0 0 0 0 0 0 0 0 0 0 0 0 0 0 0 0 0 1 1 1 0 0 0 0 0 0 1 2 2 3 5 6 6 5 4 3 2 1 1 0
0 0 0 0 0 0 0 0 0 0 1 1 1 1 1 1 1 1 1 1 2 2 2 1 0 0 0 0 0 0 0 1 2 4 5 4 4 3 2 3 3 2 1
0 0 0 0 0 0 0 0 1 1 2 2 2 2 2 2 2 2 2 2 2 2 1 1 0 0 0 0 0 0 0 0 1 1 1 1 2 1 1 2 3 3 3
0 0 0 0 0 0 0 0 1 2 3 3 3 3 3 3 3 3 3 2 1 0 1 1 1 1 0 0 0 0 0 0 0 0 0 0 1 1 1 3 4 5 5
0 0 0 0 0 1 0 0 1 1 2 2 2 2 3 3 3 2 1 1 0 0 0 1 2 1 0 0 0 0 0 0 0 0 0 0 1 2 3 4 5 6 6
0 0 0 0 0 0 0 0 0 0 1 1 1 2 2 3 3 2 0 0 0 0 0 1 1 0 0 0 0 0 0 0 0 0 0 0 1 3 3 4 5 5 5
0 0 0 0 0 0 0 0 1 1 1 1 2 2 3 3 3 2 1 1 1 0 0 1 1 1 0 0 0 0 0 0 0 0 0 0 0 1 2 3 3 3 3
0 0 0 0 0 0 0 0 1 1 2 3 3 3 3 3 3 3 3 4 3 1 1 2 2 2 1 0 0 0 0 0 0 0 0 0 0 0 0 1 2 3 3
0 0 0 1 1 1 1 1 1 2 3 3 3 3 4 4 3 3 4 5 4 2 1 2 3 2 1 0 0 0 0 0 0 0 0 0 0 0 0 0 1 1 2
0 0 0 1 2 2 2 2 2 2 3 3 4 4 5 5 4 4 4 4 4 4 3 3 3 3 1 0 0 0 0 0 0 0 0 0 0 0 0 0 0 0 1
1 1 1 1 2 2 2 2 2 2 3 4 5 6 7 6 5 4 4 4 4 5 5 4 3 3 2 1 1 0 0 0 0 0 0 0 0 0 0 0 0 0 0
3 3 3 3 3 3 3 3 3 3 4 5 5 6 7 7 6 4 3 3 4 4 5 5 4 3 3 2 1 0 0 0 0 0 0 0 0 0 0 0 0 0 0
5 5 6 6 6 6 6 6 6 6 7 7 6 6 6 6 5 3 2 2 2 3 3 3 3 3 3 3 1 1 1 0 0 0 0 0 0 0 0 0 0 0 0
7 8 9 9 9 8 8 9 9 9 9 9 7 6 5 4 3 2 1 1 1 1 1 1 1 1 2 2 2 2 2 1 0 0 0 0 0 0 0 0 0 0 0
11 12 13 13 12 10 9 9 9 9 9 8 7 6 5 4 2 1 0 0 0 0 0 0 0 0 1 1 2 3 3 2 1 0 0 0 0 0 0 0 0 0 0
14 16 16 15 14 12 9 7 7 7 8 8 7 6 6 4 2 0 0 0 0 0 0 0 0 0 0 0 1 2 2 2 1 1 1 0 0 0 0 0 0 0 0
15 15 15 15 14 12 8 5 5 7 9 9 8 8 6 4 1 0 0 0 0 0 0 0 0 0 0 0 0 1 1 1 1 1 2 1 0 0 0 0 0 0 0
14 13 14 14 13 11 7 4 4 7 10 11 10 8 6 3 1 0 0 0 0 0 0 0 0 0 0 0 0 0 0 0 0 1 1 1 0 0 0 0 0 0 0
12 12 12 13 12 10 6 4 4 6 8 9 8 6 3 1 0 0 0 0 0 0 1 1 1 0 0 0 0 0 0 0 0 0 0 0 0 0 0 0 0 0 0
11 10 11 11 11 9 6 4 4 6 7 7 7 5 2 0 0 0 0 0 0 0 1 2 2 1 0 0 0 1 1 1 0 0 0 0 0 1 1 1 0 0 0
Wind_Speed
1 1 1 1 1 1 1 1 1 1 1 1 1 2 3 2 2 2 1 5 6 6 7 7 8 7 7 7 7 7 6 7 7 7 7 7 7 7 7 7 7 6 6
2 1 1 1 1 1 1 1 1 1 1 1 1 1 2 2 2 2 1 3 6 6 6 7 8 7 7 7 7 7 7 7 7 7 7 7 7 8 8 8 7 7 6
2 2 1 1 1 1 1 1 1 1 1 1 1 1 1 2 2 2 2 1 2 4 6 7 7 7 7 8 7 7 7 7 7 7 7 7 7 7 7 7 7 7 6
2 2 2 1 1 1 1 1 1 1 1 1 1 1 1 1 2 2 2 1 1 1 3 6 7 7 8 8 8 7 7 7 7 7 7 7 8 8 7 7 7 7 7
2 2 1 1 1 2 1 1 2 2 2 1 1 1 1 1 1 2 2 2 2 1 1 2 5 5 6 7 7 7 7 8 8 8 8 8 9 9 8 8 8 8 8
2 2 2 2 2 2 1 1 2 2 2 2 2 2 2 1 1 1 2 1 1 2 2 2 2 3 5 5 5 6 6 7 8 9 9 9 9 9 9 9 9 9 8
2 2 2 2 2 2 2 2 2 2 2 2 2 2 2 2 2 1 0 0 1 1 1 1 1 1 1 3 3 4 5 6 6 6 7 7 8 8 9 10 10 9 9
2 2 2 2 2 2 2 2 3 2 1 1 2 2 1 2 2 2 2 1 1 1 0 0 0 0 1 1 1 3 4 4 5 5 5 5 5 6 6 7 8 9 8
2 2 2 2 2 2 2 2 3 3 2 1 1 2 2 1 1 2 2 2 2 1 1 1 1 0 0 0 1 2 1 1 2 2 2 2 3 3 3 4 6 7 8
1 2 2 2 2 2 2 2 2 2 3 2 1 0 1 2 2 0 1 1 2 2 1 1 1 1 1 0 0 1 1 1 1 1 1 1 2 2 2 4 5 6 7
1 1 2 2 2 2 2 2 2 2 2 2 2 1 1 1 1 2 1 0 1 1 1 1 1 1 1 1 1 2 2 2 2 2 2 2 2 1 1 2 3 3 4
0 0 1 1 2 2 2 2 2 3 2 2 2 2 2 2 2 2 2 1 0 1 1 1 1 1 1 2 2 4 4 4 3 3 2 2 3 3 2 1 2 2 2
0 1 1 1 1 1 2 2 2 2 2 3 2 2 2 2 2 2 2 1 1 0 0 1 1 1 1 2 2 3 4 5 4 4 4 3 3 4 4 4 3 3 3
1 1 1 1 1 1 2 2 2 2 2 2 3 2 2 2 2 3 3 3 1 1 0 0 1 1 1 1 2 3 2 4 5 5 4 5 5 5 5 5 5 5 5
1 2 2 2 1 1 1 2 2 2 2 2 2 2 2 1 2 2 2 3 3 2 2 1 0 0 1 1 2 2 2 4 5 5 5 5 5 5 5 5 5 5 5
1 2 2 2 1 1 1 2 1 1 2 1 1 1 1 1 1 2 2 2 2 3 2 1 1 0 0 1 2 2 2 4 5 4 4 4 4 4 4 4 4 4 5
2 2 2 2 2 1 2 2 1 1 1 0 0 1 1 1 1 1 2 2 2 2 2 1 0 1 1 1 1 1 2 2 2 3 3 3 4 4 4 3 3 4 4
3 3 2 2 2 2 2 2 2 1 1 1 1 1 1 1 1 1 2 2 2 3 3 3 1 1 1 1 1 1 1 1 1 2 3 3 3 3 3 3 3 3 2
3 2 2 2 2 2 2 2 2 2 2 2 2 1 1 1 1 1 2 2 2 2 2 3 2 1 1 1 1 0 1 1 1 1 2 2 2 3 3 3 3 3 2
3 3 2 2 2 2 2 2 2 2 2 1 1 1 2 2 3 3 2 2 3 3 3 3 2 1 1 1 1 1 0 0 0 0 1 1 1 2 2 2 2 2 2
3 3 2 2 2 2 2 3 3 2 2 1 1 1 1 2 3 3 3 3 4 3 3 3 2 2 2 2 2 1 1 0 1 1 0 0 0 0 0 0 1 1 2
3 3 3 3 2 2 3 4 3 2 2 2 2 1 1 1 2 3 4 4 5 5 5 3 3 3 3 3 2 2 1 1 1 1 1 1 1 2 2 2 2 2 3
3 3 3 3 3 3 4 4 4 3 3 3 3 2 1 1 1 2 2 3 4 5 7 5 5 5 4 4 4 3 3 3 2 1 2 2 1 2 2 2 4 4 4
4 4 4 4 3 3 4 5 4 3 3 3 3 3 2 2 2 2 2 2 2 3 4 4 5 5 4 4 5 4 3 2 1 1 2 2 2 2 2 3 4 5 5
4 4 3 4 4 4 4 5 5 3 2 2 2 2 3 3 3 4 3 3 2 1 2 3 3 3 4 5 5 3 3 2 2 2 3 2 2 2 2 2 3 5 6
4 3 3 4 4 4 5 6 6 3 3 2 1 2 3 3 3 4 4 3 3 2 1 1 1 2 3 5 7 6 5 3 2 2 3 3 2 1 2 2 2 2 3
Wind_Direction
137 114 99 93 92 98 102 98 86 76 62 67 125 155 169 169 169 177 190 188 185 186 186 183 183 187 186 186 189 191 192 195 193 193 196 199 204 205 201 201 202 204 205
157 144 137 130 132 134 138 129 126 88 60 73 100 158 170 168 168 176 193 205 200 196 196 197 197 199 198 198 197 199 203 206 204 204 208 211 212 214 215 214 212 212 213
161 154 149 162 180 144 129 116 108 104 110 104 104 127 152 164 164 179 186 201 216 212 210 211 210 208 207 207 209 209 210 213 213 212 213 216 217 217 217 218 220 218 219
157 151 156 181 165 132 130 130 120 107 99 98 84 69 97 135 163 169 173 183 199 230 229 222 216 213 215 219 220 217 212 214 214 214 216 219 220 218 218 219 222 225 228
154 151 167 174 146 135 141 152 122 130 129 117 106 70 72 140 175 173 173 187 195 217 240 251 237 226 228 231 227 226 223 220 217 220 223 227 227 224 222 223 224 227 230
151 149 157 158 144 139 132 129 121 112 133 133 90 57 40 46 85 178 203 202 204 208 214 240 262 254 245 245 239 239 240 233 229 228 230 234 234 231 225 225 226 227 229
159 152 156 153 147 156 162 146 130 117 107 114 94 58 32 37 51 37 57 149 202 215 199 218 245 257 266 265 255 246 246 243 239 233 232 234 235 234 234 231 227 226 229
159 161 158 159 156 158 153 146 141 130 139 136 130 111 38 9 23 33 38 61 41 60 74 97 142 206 247 261 274 259 257 248 242 239 236 233 234 236 237 230 224 221 220
168 162 162 162 162 167 176 174 169 162 169 176 143 148 152 196 325 10 34 45 49 52 36 44 62 95 215 282 285 292 265 254 248 248 248 235 224 221 217 226 229 224 221
168 165 167 168 173 174 182 196 179 173 162 173 156 132 155 156 160 83 8 29 41 38 27 28 27 28 8 329 66 66 55 38 329 304 300 283 261 244 227 232 229 223 218
190 179 174 173 178 185 190 193 177 171 169 171 170 158 134 109 151 168 228 333 32 17 20 26 31 23 10 11 26 65 62 42 32 24 20 24 23 33 238 223 210 201 197
309 175 162 171 180 183 191 191 178 176 181 179 176 171 170 169 179 176 196 224 298 339 10 30 28 24 30 25 48 66 70 61 52 48 47 43 36 40 41 99 165 167 168
217 221 172 170 180 190 186 175 170 181 185 186 192 199 197 200 173 165 163 184 211 261 18 36 14 18 38 34 36 62 68 68 64 60 57 51 51 53 50 60 87 104 120
208 195 171 165 168 171 176 169 168 185 180 193 204 197 201 210 184 173 172 167 175 218 218 237 23 31 34 44 50 56 61 69 68 67 67 66 66 67 67 67 69 80 89
184 167 153 143 149 162 170 158 162 179 169 186 201 203 213 222 198 193 178 174 170 195 230 199 197 31 32 60 62 67 66 72 73 69 69 72 74 75 76 75 76 84 94
165 147 141 140 136 124 134 142 156 169 157 185 188 190 214 217 193 183 178 177 178 180 198 194 201 203 130 86 73 73 74 77 75 70 72 74 76 77 79 82 85 89 97
168 163 166 160 150 142 137 136 145 141 145 144 156 184 213 179 173 180 175 175 171 162 176 208 170 149 126 111 70 70 66 66 72 74 74 76 77 77 79 79 82 90 96
173 171 168 164 171 161 153 155 165 158 163 188 225 196 224 175 163 175 175 179 176 170 171 180 176 149 137 160 133 106 78 88 92 82 83 84 85 85 83 82 81 80 94
171 163 161 169 174 169 166 171 170 171 186 213 224 214 229 180 182 182 177 176 173 159 151 156 162 139 122 138 119 93 79 42 82 87 83 80 83 84 82 79 80 82 90
172 172 172 177 182 181 180 178 169 172 184 206 215 211 215 200 203 191 178 177 166 154 145 144 143 134 137 161 163 171 198 100 270 90 72 77 81 89 91 93 100 107 112
183 177 172 185 196 194 196 188 184 179 177 177 197 228 219 193 190 193 182 178 169 166 159 158 154 151 166 178 198 203 208 234 256 237 254 307 311 277 249 209 171 156 158
184 180 191 195 205 219 204 191 180 178 182 188 205 233 226 204 189 187 183 177 174 173 179 179 185 188 201 201 195 184 179 191 240 211 217 248 230 256 253 240 226 212 203
191 198 209 198 210 223 205 197 191 187 195 205 206 214 227 229 200 189 183 177 188 188 184 185 190 199 196 194 186 189 197 211 234 188 191 243 233 251 251 241 220 216 211
192 204 213 209 210 225 206 199 193 194 204 215 212 203 201 223 212 180 173 174 193 203 202 201 205 210 204 193 191 193 196 210 238 192 186 233 230 244 256 244 226 215 211
198 202 201 201 210 226 208 198 186 189 201 224 228 214 202 206 207 177 165 173 193 240 228 214 210 202 190 182 171 158 160 185 235 220 195 225 235 247 250 251 241 223 218
197 189 198 204 210 219 210 199 187 187 197 217 233 232 213 203 198 182 176 175 196 233 224 197 189 187 188 185 179 185 187 197 220 232 193 206 214 209 246 236 238 221 216